Torna al catalogo

STARLINK-36831

AttivoComunicazioniVLEO
NORAD 67864·PAYLOAD·🇺🇸 United States

Lanciato Feb 20, 2026 da Vandenberg Space Force Base

Loading…

Prossimi Passaggi (prossime 24 ore)

TLE

AggiornatoSource: CelesTrak SupGP

Epoca: Sep 14, 2026, 21:48 UTC

1 67864C 26034Q   26257.90881944  .00040020  00000+0  11824-2 0  2571
2 67864  53.1595  43.5253 0001194  81.2792 203.8333 15.34371044    12

Traccia STARLINK-36831 in tempo reale con AllMySat

Download on the App Store